Мардакерт

Azerbaijan     40˚12′00″N   46˚48′00″E
temp.,
°C
wind,
m/s
gust,
m/s
humid.,
%
clouds,
%
prec.,
mm/h
press.,
hPa
HPBL,
m
27 november, fri
fri2701:00+2˚nw126967 0.0 102422
04:00+1˚wsw127233 0.0 102522
07:00+1˚wsw12710 0.0 102722
10:00+4˚e11600 0.0 1029251
13:00+5˚e21631 0.0 1030682
16:00+5˚sse226812 0.0 1030636
19:00+2˚s238120 0.0 103250
22:00+3˚se128634 0.0 1033185
28 november, sat
sat2801:00+1˚nne019473 0.0 103456
04:00+1˚nnw118876 0.0 103324
07:00wnw11873 0.0 103222
10:00+3˚nne116932 0.0 1032252
13:00+5˚e216629 0.0 1029675
16:00+5˚ese217160 0.0 1029575
19:00+3˚sse0181100 0.0 1029240
22:00+1˚nw118688 0.0 103022
29 november, sun
sun2901:00+1˚nw128120 0.0 102922
04:00+1˚wnw118117 0.0 102922
07:00+1˚wnw1177100 0.0 102822
10:00+4˚nnw0162100 0.0 1028144
13:00+6˚ene2161100 0.0 1026511
16:00+5˚nne1263100 0.0 1025384
19:00+3˚ssw2286100 0.9 1026163
22:00+5˚ssw2488100 2.4 1027318
30 november, mon
mon3001:00+4˚sse1190100 0.5 1026248
04:00+3˚sse1197100 1.6 1025113
07:00+3˚se1196100 0.7 102599
10:00+4˚sse1195100 0.9 1025124
13:00+5˚ese2286100 0.0 1023327
16:00+4˚ese2295100 0.1 1023182
19:00+3˚se2396100 0.0 1024180
22:00+2˚se339699 0.0 1024178
1 december, tue
tue101:00+2˚se3394100 0.0 1024192
04:00+1˚se2394100 0.0 1024175
07:00+2˚sse2290100 0.0 1024192
10:00+2˚ese228492 0.0 1025236
13:00+5˚e217691 0.0 1023361
16:00+5˚e217552 0.0 1023390
19:00+3˚s11879 0.0 102424
22:00+2˚s11905 0.0 102522